Location: Alfortville
(48.8058°N, 2.4204°E)
Time: 01:57:56
(UTC+00:00)

Envisat - Pass Details

Date: 27 November 2022
Orbit: 763 x 765 km, 98.2° (Epoch: 28 January)

Event Time Altitude Azimuth Distance (km) Brightness Sun altitude
Rises 03:03:58 0° 25° (NNE) 3,245 6.7 -40.8°
Reaches altitude 10° 03:06:46 10° 39° (NE) 2,314 6.0 -40.3°
Enters shadow 03:08:47 18° 60° (ENE) 1,799 5.4 -40.0°
